[[{"header":{"parameterUnit":"m.s-1","parameterCategory":1,"la1":30.2991,"la2":30.254,"lo1":-89.0895,"lo2":-89.0444,"dy":0.0017,"dx":0.0017,"nx":28,"ny":28,"refTime":"2023-10-23T03:00:00:Z","depth":0,"parameterNumber":2,"parameterNumberName":"U-component_of_WINDS"},"data":[0,0,0,0,0,0,0,0,0,0,0,0,0,0,0,0,0,0,0,0,0,0,0,0,0,0,0,0,0,0,0,0,0,0,0,0,0,0,0,0,0,0,0,0,0,0,0,0,0,0,0,0,0,0,0,0,0,0,-1.057,-1.057,0,-1.0606,-1.0607,-1.0607,-1.0623,-1.0623,-1.0623,-1.0623,-1.0659,-1.066,-1.0661,0,0,0,0,0,0,0,0,0,0,0,0,0,-1.0513,-1.0514,-1.057,-1.057,-1.0571,-1.0606,-1.0607,-1.0607,-1.0623,-1.0623,-1.0623,-1.0623,-1.0659,-1.066,-1.0661,0,0,0,0,0,0,0,0,0,0,0,0,0,-1.0542,-1.0514,-1.057,-1.0583,-1.0584,-1.0606,-1.0607,-1.0607,-1.0623,-1.0623,-1.0623,-1.0623,-1.0658,-1.066,-1.0661,-1.0672,0,0,-1.0666,-1.0667,0,0,0,0,0,0,0,0,-1.0541,-1.0544,-1.0581,-1.0582,-1.0584,-1.061,-1.06,-1.0629,-1.0623,-1.0608,-1.0623,-1.0623,-1.0643,-1.0646,-1.0653,-1.0674,-1.0676,-1.0666,-1.0667,-1.0668,-1.0668,0,0,0,0,0,0,0,-1.0539,-1.0543,-1.0584,-1.0581,-1.0583,-1.0587,-1.0591,-1.0606,-1.0626,-1.061,-1.0611,-1.0615,-1.0644,-1.0651,-1.0654,-1.0676,-1.0666,-1.0668,-1.0668,-1.0669,-1.0709,-1.0709,0,0,0,0,0,0,-1.0535,-1.0541,-1.0583,-1.0585,-1.0562,-1.0588,-1.0592,-1.0602,-1.0625,-1.0629,-1.0615,-1.0616,-1.0649,-1.0652,-1.0655,-1.067,-1.0668,-1.0669,-1.067,-1.0709,-1.0709,-1.0709,0,0,0,0,0,0,-1.0533,-1.0538,-1.0582,-1.0564,-1.0569,-1.0589,-1.0599,-1.0602,-1.061,-1.063,-1.0633,-1.0619,-1.0649,-1.0653,-1.0668,-1.0671,-1.067,-1.0671,-1.0709,-1.0709,-1.0709,-1.07,0,0,0,0,0,0,-1.0532,-1.0538,-1.0542,-1.0564,-1.057,-1.0594,-1.0599,-1.0603,-1.0613,-1.0614,-1.0634,-1.0637,-1.0649,-1.0666,-1.067,-1.0673,-1.0672,-1.0709,-1.0709,-1.0709,-1.07,-1.07,-1.0699,0,0,0,0,0,-1.053,-1.0538,-1.0542,-1.0547,-1.0576,-1.0594,-1.0598,-1.0611,-1.0613,-1.0617,-1.063,-1.0637,-1.067,-1.0667,-1.0672,-1.0676,-1.0709,-1.0709,-1.0709,-1.07,-1.07,-1.0699,0,0,0,0,0,0,-1.0515,-1.0541,-1.0546,-1.0561,-1.0576,-1.0597,-1.0603,-1.0611,-1.0625,-1.0625,-1.064,-1.0645,-1.0659,-1.0669,-1.0665,-1.0688,-1.069,-1.0691,-1.0681,-1.0681,-1.0681,-1.0678,-1.0674,0,0,0,0,0,-1.0514,-1.0527,-1.0548,-1.0559,-1.0567,-1.0584,-1.0592,-1.0601,-1.0616,-1.0622,-1.0636,-1.0651,-1.0665,-1.0673,-1.0687,-1.0701,-1.0706,-1.0706,-1.0706,-1.0706,-1.0707,-1.0716,-1.0716,-1.0711,-1.0711,-1.0711,0,0,-1.0511,-1.0527,-1.0534,-1.0557,-1.0569,-1.0582,-1.0589,-1.0602,-1.0612,-1.0624,-1.064,-1.0651,-1.0668,-1.0683,-1.069,-1.0691,-1.071,-1.0706,-1.0706,-1.0707,-1.0716,-1.0717,-1.0717,-1.0711,-1.0711,-1.0711,0,0,-1.0513,-1.0526,-1.0537,-1.055,-1.0568,-1.058,-1.0582,-1.0603,-1.0611,-1.0627,-1.0637,-1.0648,-1.0672,-1.0684,-1.0693,-1.07,-1.0707,-1.0704,-1.0703,-1.0711,-1.0712,-1.0712,-1.0716,-1.0716,-1.0705,-1.0705,-1.0705,0,-1.0507,-1.0528,-1.0542,-1.0555,-1.0565,-1.0578,-1.0589,-1.06,-1.0622,-1.0629,-1.063,-1.066,-1.0673,-1.0691,-1.0693,-1.07,-1.0703,-1.0702,-1.0711,-1.0711,-1.0712,-1.0715,-1.0716,-1.0705,-1.0705,-1.0705,-1.0705,0,-1.052,-1.0534,-1.054,-1.0562,-1.0573,-1.0585,-1.0601,-1.061,-1.0618,-1.063,-1.0646,-1.0662,-1.0679,-1.0684,-1.0692,-1.0704,-1.0704,-1.0708,-1.071,-1.0712,-1.0715,-1.0717,-1.0704,-1.0704,-1.0704,-1.0704,0,0,-1.0513,-1.0544,-1.0546,-1.0556,-1.0578,-1.0589,-1.0602,-1.0619,-1.0627,-1.0642,-1.0653,-1.0673,-1.0677,-1.0687,-1.0697,-1.0704,-1.0709,-1.0707,-1.0708,-1.0707,-1.0724,-1.0722,-1.0723,-1.0714,-1.0714,-1.0715,-1.0723,0,-1.0519,-1.0543,-1.0556,-1.0575,-1.0588,-1.0601,-1.0612,-1.0626,-1.0637,-1.065,-1.0662,-1.0676,-1.068,-1.0686,-1.0694,-1.0707,-1.0713,-1.0707,-1.0725,-1.0725,-1.0721,-1.0725,-1.0722,-1.0729,-1.0724,-1.0725,-1.0725,0,-1.0528,-1.0544,-1.0563,-1.0585,-1.0591,-1.06,-1.0618,-1.063,-1.0647,-1.0654,-1.0666,-1.0676,-1.069,-1.0691,-1.0711,-1.0706,-1.0714,-1.0722,-1.0722,-1.0725,-1.0726,-1.0728,-1.0732,-1.0733,-1.0727,-1.0727,-1.0726,0,-1.0522,-1.0548,-1.0563,-1.0572,-1.0596,-1.0603,-1.0614,-1.0631,-1.0641,-1.0656,-1.0663,-1.0679,-1.0688,-1.07,-1.0714,-1.0713,-1.0733,-1.0735,-1.074,-1.074,-1.0744,-1.0743,-1.0749,-1.0748,-1.0748,-1.0748,-1.0748,0,-1.0527,-1.0539,-1.0561,-1.0571,-1.0585,-1.06,-1.0613,-1.0625,-1.064,-1.0652,-1.0663,-1.0674,-1.0691,-1.0704,-1.0715,-1.073,-1.0734,-1.074,-1.0743,-1.074,-1.0739,-1.0746,-1.0746,-1.0748,-1.0748,-1.0748,-1.0748,0,-1.0523,-1.0538,-1.0556,-1.0579,-1.0584,-1.0594,-1.0613,-1.0622,-1.0634,-1.0649,-1.0654,-1.0672,-1.0688,-1.0703,-1.0724,-1.0731,-1.0747,-1.075,-1.0741,-1.0743,-1.0748,-1.0747,-1.0759,-1.0761,-1.0757,-1.0757,-1.0757,0,-1.0525,-1.0535,-1.0558,-1.0568,-1.0578,-1.0592,-1.0603,-1.0618,-1.0629,-1.0649,-1.0657,-1.0674,-1.0688,-1.0713,-1.0729,-1.0745,-1.0749,-1.0752,-1.0752,-1.0748,-1.075,-1.0749,-1.0751,-1.0752,-1.0752,-1.0752,-1.0752,0,-1.0528,-1.0535,-1.055,-1.0568,-1.058,-1.0595,-1.061,-1.0616,-1.0635,-1.0646,-1.0663,-1.0674,-1.0696,-1.0713,-1.0732,-1.0742,-1.075,-1.0752,-1.0754,-1.0751,-1.0746,-1.0749,-1.0742,-1.0752,-1.0752,-1.0752,-1.0752,-1.0752,-1.0527,-1.0537,-1.0555,-1.0572,-1.0585,-1.0598,-1.0609,-1.0622,-1.0637,-1.0657,-1.0665,-1.0682,-1.0699,-1.0725,-1.0736,-1.0749,-1.0751,-1.0754,-1.0755,-1.0755,-1.0755,-1.0743,-1.0753,-1.0753,-1.0753,-1.0753,-1.0753,0,-1.0531,-1.0544,-1.0559,-1.058,-1.0593,-1.0599,-1.0616,-1.0627,-1.0642,-1.0658,-1.0672,-1.0692,-1.0708,-1.0725,-1.0743,-1.0751,-1.0755,-1.0755,-1.0755,-1.0757,-1.0752,-1.0749,-1.0751,-1.0751,-1.0751,-1.0751,-1.0751,-1.0751,-1.0534,-1.0551,-1.0561,-1.0584,-1.0596,-1.0614,-1.0623,-1.0636,-1.0649,-1.0671,-1.0685,-1.0696,-1.0712,-1.0731,-1.0747,-1.0751,-1.0757,-1.0757,-1.0762,-1.0757,-1.0757,-1.0757,-1.0754,-1.0758,-1.0758,-1.0766,-1.0766,-1.0766]},{"header":{"parameterUnit":"m.s-1","parameterCategory":1,"la1":30.2991,"la2":30.254,"lo1":-89.0895,"lo2":-89.0444,"dy":0.0017,"dx":0.0017,"nx":28,"ny":28,"refTime":"2023-10-23T03:00:00:Z","depth":0,"parameterNumber":3,"parameterNumberName":"V-component_of_WINDS"},"data":[0,0,0,0,0,0,0,0,0,0,0,0,0,0,0,0,0,0,0,0,0,0,0,0,0,0,0,0,0,0,0,0,0,0,0,0,0,0,0,0,0,0,0,0,0,0,0,0,0,0,0,0,0,0,0,0,0,0,-1.1792,-1.1792,0,-1.1804,-1.1804,-1.1804,-1.1782,-1.1781,-1.1781,-1.178,-1.1791,-1.1792,-1.1793,0,0,0,0,0,0,0,0,0,0,0,0,0,-1.1749,-1.175,-1.1792,-1.1792,-1.1792,-1.1804,-1.1804,-1.1804,-1.1782,-1.1781,-1.178,-1.178,-1.1791,-1.1792,-1.1793,0,0,0,0,0,0,0,0,0,0,0,0,0,-1.1765,-1.175,-1.1792,-1.1783,-1.1782,-1.1804,-1.1804,-1.1804,-1.1782,-1.1781,-1.178,-1.1779,-1.179,-1.1792,-1.1793,-1.1824,0,0,-1.1798,-1.1798,0,0,0,0,0,0,0,0,-1.1764,-1.1766,-1.1784,-1.1783,-1.1783,-1.179,-1.1793,-1.1811,-1.1783,-1.1782,-1.178,-1.1779,-1.1792,-1.1793,-1.1797,-1.1824,-1.1825,-1.1798,-1.1799,-1.1799,-1.18,0,0,0,0,0,0,0,-1.1763,-1.1766,-1.1797,-1.1784,-1.1783,-1.1778,-1.1779,-1.1796,-1.1793,-1.1782,-1.1781,-1.1782,-1.1791,-1.1796,-1.1798,-1.1825,-1.1798,-1.1799,-1.18,-1.18,-1.1878,-1.1879,0,0,0,0,0,0,-1.1763,-1.1765,-1.1796,-1.1797,-1.177,-1.1779,-1.178,-1.1789,-1.1793,-1.1792,-1.1783,-1.1781,-1.1794,-1.1796,-1.1798,-1.1834,-1.1799,-1.1801,-1.1801,-1.1877,-1.1878,-1.1879,0,0,0,0,0,0,-1.1762,-1.1766,-1.1796,-1.1781,-1.1784,-1.1781,-1.1791,-1.179,-1.1795,-1.1793,-1.1793,-1.1789,-1.1793,-1.1796,-1.1818,-1.1834,-1.1801,-1.1803,-1.1875,-1.1877,-1.1879,-1.1907,0,0,0,0,0,0,-1.1761,-1.1766,-1.1778,-1.1781,-1.1785,-1.1816,-1.1792,-1.1791,-1.1798,-1.1795,-1.1799,-1.1798,-1.1793,-1.1816,-1.1819,-1.1836,-1.1804,-1.1874,-1.1876,-1.1878,-1.1905,-1.191,-1.1914,0,0,0,0,0,-1.176,-1.1785,-1.1779,-1.1783,-1.18,-1.1817,-1.1819,-1.1812,-1.1799,-1.1811,-1.181,-1.1798,-1.1832,-1.1818,-1.1822,-1.1839,-1.1873,-1.1875,-1.1878,-1.1903,-1.1909,-1.1914,0,0,0,0,0,0,-1.1784,-1.1786,-1.1778,-1.1806,-1.1812,-1.1813,-1.1828,-1.1819,-1.1828,-1.1825,-1.1816,-1.1817,-1.1841,-1.1842,-1.1827,-1.1869,-1.185,-1.1853,-1.1868,-1.1873,-1.1878,-1.1877,-1.1805,0,0,0,0,0,-1.1793,-1.1807,-1.1807,-1.1832,-1.1835,-1.1831,-1.1838,-1.1832,-1.1838,-1.184,-1.184,-1.1846,-1.1857,-1.1865,-1.1876,-1.1905,-1.1905,-1.1919,-1.1923,-1.1927,-1.193,-1.1946,-1.1951,-1.1888,-1.1888,-1.1888,0,0,-1.1811,-1.1813,-1.1823,-1.1837,-1.184,-1.1855,-1.1833,-1.1849,-1.186,-1.1842,-1.1863,-1.1864,-1.1869,-1.1894,-1.1906,-1.1896,-1.1948,-1.193,-1.1933,-1.1935,-1.1949,-1.1955,-1.196,-1.189,-1.189,-1.1889,0,0,-1.1851,-1.1854,-1.1875,-1.1879,-1.1885,-1.1882,-1.1887,-1.189,-1.189,-1.1911,-1.1898,-1.191,-1.1931,-1.1935,-1.194,-1.1981,-1.1971,-1.1985,-1.2009,-1.2024,-1.2029,-1.2033,-1.2048,-1.2054,-1.1988,-1.1988,-1.1988,0,-1.1873,-1.1894,-1.1887,-1.1904,-1.191,-1.1895,-1.1916,-1.192,-1.1929,-1.1933,-1.1922,-1.1948,-1.195,-1.1976,-1.1987,-1.1991,-1.1996,-1.1985,-1.2029,-1.2033,-1.2037,-1.2051,-1.2057,-1.199,-1.1989,-1.1989,-1.1989,0,-1.1921,-1.1936,-1.1952,-1.1961,-1.1969,-1.1988,-1.1983,-1.1992,-1.1985,-1.1983,-1.2005,-1.2007,-1.2018,-1.2023,-1.2017,-1.2049,-1.2043,-1.2031,-1.2011,-1.2045,-1.2058,-1.2064,-1.1992,-1.1991,-1.1991,-1.1991,0,0,-1.1977,-1.1982,-1.1988,-1.1992,-1.1997,-1.2009,-1.2026,-1.2038,-1.2045,-1.2052,-1.2067,-1.2084,-1.2073,-1.2078,-1.2072,-1.2085,-1.2118,-1.2071,-1.2071,-1.208,-1.2153,-1.2163,-1.2169,-1.2111,-1.2112,-1.2113,-1.2153,0,-1.2017,-1.2049,-1.2042,-1.2073,-1.2087,-1.2072,-1.2088,-1.2092,-1.2091,-1.2102,-1.21,-1.2113,-1.2097,-1.21,-1.2113,-1.2111,-1.2133,-1.2108,-1.2124,-1.2125,-1.2124,-1.2176,-1.2186,-1.2224,-1.2158,-1.2159,-1.2159,0,-1.2069,-1.2078,-1.211,-1.2113,-1.2118,-1.2132,-1.2142,-1.2153,-1.2157,-1.2155,-1.2162,-1.2153,-1.217,-1.215,-1.2174,-1.2157,-1.2163,-1.2164,-1.2165,-1.2167,-1.2145,-1.2179,-1.2236,-1.2242,-1.2167,-1.2167,-1.2166,0,-1.2107,-1.2127,-1.2149,-1.2153,-1.2157,-1.2167,-1.2169,-1.2173,-1.218,-1.2187,-1.2192,-1.2202,-1.2207,-1.2215,-1.2208,-1.2195,-1.2233,-1.2213,-1.2232,-1.2232,-1.2241,-1.2241,-1.23,-1.2244,-1.2244,-1.2244,-1.2244,0,-1.2153,-1.2174,-1.2166,-1.218,-1.2202,-1.2194,-1.2216,-1.2216,-1.2219,-1.2232,-1.222,-1.2232,-1.2223,-1.2235,-1.223,-1.225,-1.2253,-1.2251,-1.225,-1.2253,-1.2253,-1.2257,-1.2254,-1.2246,-1.2245,-1.2245,-1.2245,0,-1.2201,-1.2196,-1.2219,-1.2221,-1.2222,-1.2238,-1.2239,-1.2252,-1.2249,-1.2266,-1.2269,-1.2265,-1.2278,-1.2272,-1.2286,-1.2282,-1.2309,-1.2303,-1.2307,-1.2306,-1.2326,-1.2324,-1.239,-1.2398,-1.2337,-1.2338,-1.2338,0,-1.2231,-1.2246,-1.2249,-1.2257,-1.226,-1.2273,-1.228,-1.2272,-1.228,-1.2286,-1.2298,-1.231,-1.2319,-1.234,-1.2338,-1.2348,-1.2343,-1.2365,-1.2345,-1.2347,-1.2344,-1.2343,-1.2345,-1.237,-1.2371,-1.2371,-1.2372,0,-1.2284,-1.2281,-1.2292,-1.2302,-1.2311,-1.2319,-1.2325,-1.2332,-1.2325,-1.2334,-1.2347,-1.2354,-1.2368,-1.238,-1.2388,-1.239,-1.238,-1.2378,-1.2383,-1.2386,-1.2388,-1.2388,-1.2319,-1.2377,-1.2376,-1.2376,-1.2376,-1.2375,-1.2324,-1.2337,-1.2341,-1.2354,-1.2358,-1.2364,-1.2376,-1.2375,-1.2385,-1.2396,-1.2391,-1.2406,-1.241,-1.2421,-1.2423,-1.2435,-1.2426,-1.2433,-1.2435,-1.2437,-1.244,-1.2386,-1.2436,-1.2436,-1.2436,-1.2436,-1.2436,0,-1.2377,-1.2379,-1.2391,-1.24,-1.241,-1.2399,-1.2406,-1.2414,-1.2428,-1.2433,-1.2442,-1.2457,-1.2468,-1.2467,-1.2477,-1.2487,-1.2482,-1.249,-1.2489,-1.249,-1.2447,-1.2442,-1.2493,-1.2493,-1.2493,-1.2493,-1.2493,-1.2493,-1.2406,-1.2428,-1.2425,-1.2448,-1.245,-1.2465,-1.247,-1.2475,-1.2479,-1.2496,-1.2505,-1.2505,-1.2507,-1.2517,-1.2527,-1.2526,-1.2531,-1.254,-1.2538,-1.2498,-1.2493,-1.2487,-1.2482,-1.2541,-1.2541,-1.2579,-1.2579,-1.258]}]]